Location: Austin
(30.3000°N, 97.7500°W)
Time: 00:08:48
(UTC-05:00)

Cosmos 1666 Rocket - Pass Details

Date: 11 June 2024
Orbit: 599 x 630 km, 82.5° (Epoch: 21 June)

Event Time Altitude Azimuth Distance (km) Brightness Sun altitude
Rises 21:39:38 0° 357° (N) 2,856 7.6 -13.0°
Reaches altitude 10° 21:41:52 10° 0° (N) 1,953 6.6 -13.3°
Maximum altitude 21:46:10 67° 84° (E) 661 3.5 -14.1°
Enters shadow 21:49:16 18° 163° (SSE) 1,487 5.0 -14.6°
